Regional Weather Roundup
Issued by NWS Wakefield, VA

Home | Current Version | Previous Version | Graphics & Text | Print | Product List | Glossary On
Versions: 1 2 3 4 5 6 7 8 9 10 11 12 13 14 15 16 17 18 19 20 21 22 23 24 25 26 27 28 29 30 31 32 33 34 35 36 37 38 39 40 41 42 43 44 45 46 47 48 49 50
028
ASUS41 KAKQ 290315
RWRAKQ

REGIONAL WEATHER ROUNDUP
NATIONAL WEATHER SERVICE WAKEFIELD VA
1100 PM EDT SUN MAY 28 2017

Note: "fair" indicates few or no clouds below 12,000 feet with no
significant weather and/or obstructions to visibility. * = Denotes
station may not report precipitation (e.g., rain,snow,etc.),
thunder or fog.

VAZ042-051-052>054-056-290400-
NORTHERN VIRGINIA

CITY           SKY/WX    TMP DP  RH WIND       PRES   REMARKS
WASH NATIONAL  CLOUDY    66  65  96 NE8       29.84S
DULLES         DRIZZLE   65  63  93 E5        29.83F FOG
FORT BELVOIR   CLOUDY    66  64  94 CALM      29.83S
QUANTICO       CLOUDY    68  67  96 NE7       29.83S
FREDERICKSBRG* CLOUDY    68  68 100 CALM      29.81F
STAFFORD*      CLOUDY    66  66 100 CALM      29.86F
WARRENTON      CLOUDY    66  63  90 CALM      29.83F FOG
CULPEPER*      CLOUDY    66  66 100 N3        29.85S FOG
MANASSAS*      LGT RAIN  66  64  93 NE5       29.83S
LEESBURG*      CLOUDY    66  66 100 E3        29.85S
WINCHESTER     CLOUDY    63  61  94 CALM      29.84S FOG
FRONT ROYAL*   CLOUDY    64  64 100 CALM      29.83S
LURAY*         CLOUDY    64  64 100 CALM      29.84S
$$

VAZ048-049-060>072-079>083-290400-
CENTRAL AND SOUTH CENTRAL VIRGINIA

CITY           SKY/WX    TMP DP  RH WIND       PRES   REMARKS
RICHMOND       CLOUDY    72  68  87 NE6       29.81S
CHESTERFIELD*  NOT AVBL
PETERSBURG*    PTCLDY    68  67  97 CALM      29.82S
HANOVER        CLOUDY    68  65  90 N3        29.82F FOG
TAPPAHANNOCK*  CLOUDY    68  68 100 N3        29.82F
QUINTON*       MOCLDY    68  68 100 S3        29.80F
CHARLOTTSVILLE LGT RAIN  67  65  93 CALM      29.84R FOG
GORDONSVILLE*  CLOUDY    65  65 100 CALM      29.83S
ORANGE*        CLOUDY    64  64 100 CALM      29.83F FOG
LOUISA*        CLOUDY    70  70 100 CALM      29.82F FOG
BUMPASS*       CLOUDY    66  66 100 N3        29.83R
FARMVILLE*     MOCLDY    67  65  91 CALM      29.82S FOG
CREWE*         FAIR      66  62  87 CALM      29.84R
FORT PICKETT*  MOCLDY   N/A N/A N/A W8        29.83R
CHASE CITY*    FAIR      69  67  94 CALM      29.84R
CLARKSVILLE*   FAIR      70  70 100 N3        29.83R
SOUTH HILL*    PTCLDY    69  69 100 CALM      29.87S
LAWRENCEVILLE* MOCLDY    70  69  96 CALM      29.82R
EMPORIA*       PTCLDY    70  70 100 NE3       29.82S
$$

VAZ088>098-290400-
SOUTHEAST VIRGINIA

CITY           SKY/WX    TMP DP  RH WIND       PRES   REMARKS
NORFOLK        MOCLDY    70  66  87 N5        29.80S
VIRGINIA BEACH MOCLDY    65  63  93 CALM      29.80R
NORFOLK NAVAL  MOCLDY    69  65  86 CALM      29.82R
WEST POINT*    CLOUDY    68  67  97 CALM      29.82S
SALUDA*        CLOUDY    67  67 100 CALM      29.81S
NEWPORT NEWS   PTCLDY    67  65  93 CALM      29.81R FOG
LANGLEY AFB    MOCLDY    68  67  99 CALM      29.79S
FORT EUSTIS    MOCLDY    68  65  89 CALM      29.79R
WILLIAMSBURG*  CLOUDY    70  70 100 CALM      29.82S
HR EXEC AP*    FAIR      63  61  94 CALM      29.79S
FRANKLIN*      CLOUDY    68  67  97 CALM      29.82R
US460-WAKEFLD  CLOUDY    69  68  96 CALM      29.81R FOG
$$

VAZ020-022-025-037-045-290400-
WEST CENTRAL AND SOUTHWEST VIRGINIA

CITY           SKY/WX    TMP DP  RH WIND       PRES   REMARKS
STAUNTON*      DRIZZLE   64  64  99 CALM      29.87F
WAYNESBORO*    CLOUDY    64  64 100 CALM      29.87S
HOT SPRINGS VA CLOUDY    61  52  72 W17G25    29.95R
LYNCHBURG      FOG       63  63 100 CALM      29.87S VSB 3/4
DANVILLE       MOCLDY    71  63  75 W5        29.86R
SOUTH BOSTON*  FAIR      69  68  96 CALM      29.84R
MARTINSVILLE   CLEAR     63  61  93 CALM      29.90S
ROANOKE        MOCLDY    72  59  63 W3        29.88R
BLACKSBURG     CLOUDY    62  59  90 CALM      29.94S
DUBLIN*        CLOUDY    65  58  76 S5        29.93S
MARION*        PTCLDY    64  60  88 CALM      29.96F
HILLSVILLE*    CLOUDY    64  55  72 CALM      29.94F
RICHLANDS*     MOCLDY    64  61  88 W7        29.96S
WISE*          PTCLDY    63  55  77 CALM      29.97S
ABINGDON*      PTCLDY    65  63  93 W3        29.94F
$$

MDZ021>025-VAZ099-100-290400-
SOUTHERN MARYLAND AND THE DELMARVA PENINSULA

CITY           SKY/WX    TMP DP  RH WIND       PRES   REMARKS
PATUXENT RIVER CLOUDY    65  65 100 NE7       29.81F FOG
BAY BRIDGE APT CLOUDY    63  63 100 NE3       29.84R
LEONARDTOWN    CLOUDY    64  63  94 CALM      29.83F
DOVER          LGT RAIN  61  61 100 NE8       29.84S
GEORGETOWN     LGT RAIN  62  60  93 NE7       29.83F FOG
EASTON         CLOUDY    64  61  92 E5        29.87S
CAMBRIDGE        N/A     63  63 100 N3        29.82F FOG
SALISBURY      LGT RAIN  63  63 100 N5        29.82R FOG
OCEAN CITY     LGT RAIN  63  62  97 NW6       29.82S
WALLOPS ISLAND CLOUDY    65  65 100 N5        29.80F FOG
ACCOMACK*      CLOUDY    67  30  25 N3        29.80F HAZE
$$

NCZ012>017-030>032-290400-
NORTH CENTRAL AND EASTERN NORTH CAROLINA

CITY           SKY/WX    TMP DP  RH WIND       PRES   REMARKS
ROANOKE RAPIDS MOCLDY    68  68 100 CALM      29.82R
RALEIGH        CLOUDY    75  68  78 CALM      29.85R
ELIZABETH CITY CLOUDY    72  72 100 E3        29.81S FOG
AHOSKIE*       NOT AVBL
EDENTON*         N/A     74  72  93 CALM      29.82S FOG
CURRITUCK*     CLOUDY   N/A N/A N/A CALM      29.82R
KILL DEVIL HLS CLEAR     68  68 100 CALM      29.80R
MANTEO         CLEAR     72  71  97 CALM      29.81R
CAPE HATTERAS  CLEAR     77  72  84 W13G22    29.81R
TARBORO*       NOT AVBL
GOLDSBORO      CLOUDY    79  72  78 SW8       29.82R
WASHINGTON     CLOUDY    74  69  85 CALM      29.82S
GREENVILLE     CLOUDY    72  72 100 CALM      29.85R
NEW BERN       CLOUDY    79  70  74 SW9       29.85R
WILMINGTON     CLOUDY    69  68  96 SW3       29.87F
$$

VAZ048-290400-
ELSEWHERE

CITY           SKY/WX    TMP DP  RH WIND       PRES   REMARKS
HARRISBURG PA  LGT RAIN  63  62  97 E7        29.86S FOG
BALTIMORE      CLOUDY    64  64 100 E8        29.84S
ANNAPOLIS      CLOUDY    66  65  96 NE3       29.83S
ANDREWS AFB    CLOUDY    64  63  97 NE8       29.83S
PHILADELPHIA   LGT RAIN  61  57  87 E12       29.87F
HENDERSON NC   CLOUDY    70  64  81 SW5       29.84R
GREENSBORO     MOCLDY    71  65  81 W6        29.87R
ROCKY MOUNT    MOCLDY    73  71  93 CALM      29.82R
$$

VAZ100-290400-
MARINE

STATION/POSITION TIME  TEMP    WIND        PRES    WAVE   SWELL
                       AIR SEA DIR/SP/G            HT/PER HT/PER
                 (UTC) (F)     (DEG/KT/KT) (MB)    (FT/S) (FT/S)
CAPE MAY NJ      0248   60 65   80/ 10/ 18 1009.6F
LEWES DE         0242   61 64   90/ 12/ 14 1009.7F
15NM E FENWICK I 0250   61 59   70/  6/  8 1009.1F   4/ 5   3/ 5
WACHAPREAGUE VA  0248   66 69  340/  2/  5 1008.6F
THOMAS POINT MD  0300   64 65   50/  6/  7   N/A
GOOSES REEF MD   0300   65 65   50/  8/ 10 1010.6    1/ 2
COVE POINT MD    0248   65      60/  7/  8 1010.4S
SOLOMONS ISLAND  0242   65 68   30/  5/  6   N/A
BISHOPS HEAD MD  0248   65 72   30/  6/  8 1009.9F
PINEY POINT MD   0248           70/  4/  5   N/A
POTOMAC MD       0300   67 69   50/  8/  8 1008.4    0
CAMBRIDGE MD     0242   63 70                N/A
LEWISETTA VA     0248   67 71   70/  6/  7 1009.3S
RAPPAHANNOCK LGT 0248          360/  8/  9 1009.8F
STINGRAY PT      0250   68      60/  6/  6 1008.9S
YORK RVR RNG VA  0248   69      40/  5/  6 1008.5F
YORKTOWN VA      0248   68 70   CALM  /  1 1008.9R
JAMESTOWN VA     0300   69 74   40/  2/  4   N/A     0
DOMINION TERM VA 0248   69      40/  3/  4 1009.2R
KIPTOPEKE VA     0248      68   20/  3/  5   N/A
CHES BAY BRIDGE  0248   68 67   10/  5/  6 1009.0S
CAPE HENRY VA    0248   67     330/  5/  6   N/A
WILLOUBY STN VA  0248   68      30/  4/  4 1009.0R
S CRANEY ISL VA  0248   69      50/  3/  3 1009.1R
CAPE HENRY BUOY  0242      65                N/A     2/ 7
1ST LANDING BUOY 0300   68 68              1009.2    1/ 3
CAPE CHARLES BUO 0251      65                N/A     2/ 7
64NM E OF VA BCH 0250   66 65  280/  8/  8 1009.0R   2/ 6   2/ 6
DUCK PIER NC     0248   67 66   10/  4/  5 1009.1R
44100 DUCK FRF   0235      66                N/A     2/ 5
44056 DUCK FRF   0230      69                N/A     2/ 4
OREGON INLET NC  0242   70 76  360/  4/  6 1009.5R
HATTERAS NC      0248   76 75  230/ 10/ 15 1009.4R
DIAMOND SHLS NC  0250   77 76  240/ 21/ 25 1009.3R   5/ 6
CAPE LOOKOUT NC  0200   76     240/  8/ 11 1010.6R
$$




USA.gov is the U.S. government's official web portal to all federal, state and local government web resources and services.